[[{"header":{"parameterUnit":"m.s-1","parameterCategory":1,"la1":30.2991,"la2":30.254,"lo1":-89.0895,"lo2":-89.0444,"dy":0.0017,"dx":0.0017,"nx":28,"ny":28,"refTime":"2024-08-14T09:00:00:Z","depth":0,"parameterNumber":2,"parameterNumberName":"U-component_of_WINDS"},"data":[0,0,0,0,0,0,0,0,0,0,0,0,0,0,0,0,0,0,0,0,0,0,0,0,0,0,0,0,0,0,0,0,0,0,0,0,0,0,0,0,0,0,0,0,0,0,0,0,0,0,0,0,0,0,0,0,0,0,3.1408,3.1408,0,3.1427,3.1427,3.1428,3.1406,3.1405,3.1404,3.1403,3.1423,3.1424,3.1426,0,0,0,0,0,0,0,0,0,0,0,0,0,3.1354,3.1355,3.1408,3.1408,3.1408,3.1427,3.1427,3.1428,3.1406,3.1405,3.1404,3.1403,3.1423,3.1424,3.1426,0,0,0,0,0,0,0,0,0,0,0,0,0,3.1376,3.1355,3.1408,3.14,3.1399,3.1427,3.1427,3.1428,3.1406,3.1405,3.1404,3.1402,3.1422,3.1424,3.1426,3.1463,0,0,3.1432,3.1433,0,0,0,0,0,0,0,0,3.1374,3.1378,3.1401,3.14,3.14,3.1413,3.1416,3.1439,3.1406,3.1403,3.1403,3.1402,3.1421,3.1423,3.1429,3.1464,3.1464,3.1432,3.1433,3.1434,3.1435,0,0,0,0,0,0,0,3.1373,3.1377,3.1415,3.1401,3.1401,3.1396,3.1397,3.142,3.1419,3.1404,3.1402,3.1405,3.142,3.1427,3.1429,3.1465,3.1432,3.1434,3.1435,3.1436,3.1534,3.1535,0,0,0,0,0,0,3.1372,3.1376,3.1415,3.1416,3.1384,3.1398,3.14,3.141,3.1418,3.1419,3.1406,3.1404,3.1424,3.1427,3.143,3.1475,3.1434,3.1436,3.1437,3.1532,3.1534,3.1536,0,0,0,0,0,0,3.1371,3.1376,3.1414,3.1396,3.14,3.14,3.1412,3.1411,3.1418,3.142,3.142,3.1413,3.1423,3.1427,3.1455,3.1476,3.1437,3.1438,3.1531,3.1533,3.1535,3.1566,0,0,0,0,0,0,3.137,3.1376,3.1389,3.1396,3.1401,3.1439,3.1413,3.1412,3.1421,3.1419,3.1427,3.1427,3.1423,3.1453,3.1457,3.1478,3.144,3.1529,3.1532,3.1534,3.1563,3.1569,3.1574,0,0,0,0,0,3.1368,3.1396,3.139,3.1395,3.1418,3.144,3.1443,3.1438,3.1423,3.1437,3.1439,3.1427,3.1473,3.1456,3.1461,3.1482,3.1527,3.1531,3.1534,3.156,3.1567,3.1573,0,0,0,0,0,0,3.1391,3.1397,3.139,3.1421,3.143,3.1436,3.1453,3.1445,3.1458,3.1455,3.1448,3.145,3.1481,3.1484,3.1465,3.152,3.1498,3.1502,3.1516,3.1523,3.1528,3.1527,3.1442,0,0,0,0,0,3.14,3.1417,3.1422,3.1449,3.1454,3.1453,3.1463,3.1458,3.1467,3.1471,3.1474,3.1484,3.1501,3.1512,3.1527,3.1563,3.1566,3.1581,3.1586,3.159,3.1595,3.1616,3.1623,3.1546,3.1546,3.1546,0,0,3.1418,3.1424,3.1435,3.1454,3.146,3.1479,3.1456,3.1477,3.1491,3.1474,3.1501,3.1505,3.1515,3.1548,3.1562,3.1552,3.1617,3.1595,3.1598,3.16,3.162,3.1628,3.1634,3.1548,3.1548,3.1548,0,0,3.1462,3.1467,3.1491,3.1499,3.1509,3.1509,3.1515,3.1523,3.1525,3.1552,3.154,3.1558,3.1586,3.1595,3.1603,3.1653,3.1643,3.1658,3.1686,3.1707,3.1713,3.1719,3.1738,3.1745,3.1662,3.1662,3.1662,0,3.1483,3.1511,3.1505,3.1527,3.1537,3.1523,3.1548,3.1556,3.1571,3.1578,3.1566,3.1604,3.1609,3.1645,3.1658,3.1664,3.1672,3.1657,3.1713,3.1718,3.1723,3.1742,3.1749,3.1664,3.1664,3.1663,3.1663,0,3.1537,3.1557,3.1576,3.1592,3.1603,3.1627,3.1626,3.1639,3.1634,3.1635,3.1665,3.1672,3.1689,3.1697,3.1692,3.1733,3.1727,3.1714,3.1692,3.1732,3.175,3.1757,3.1667,3.1666,3.1665,3.1665,0,0,3.1594,3.1609,3.1616,3.1624,3.1636,3.1651,3.1675,3.1693,3.1705,3.1716,3.1737,3.1763,3.1752,3.1762,3.1758,3.1776,3.1818,3.1761,3.1761,3.1773,3.1866,3.1876,3.1884,3.1811,3.1812,3.1813,3.1865,0,3.1639,3.1681,3.1678,3.1717,3.1737,3.1725,3.1746,3.1756,3.1759,3.1776,3.1779,3.1798,3.1781,3.1787,3.1805,3.1809,3.1836,3.1805,3.1832,3.1833,3.183,3.1893,3.1903,3.1952,3.1872,3.1873,3.1874,0,3.1696,3.1711,3.1753,3.1765,3.1772,3.1791,3.1809,3.1825,3.1837,3.1838,3.185,3.1844,3.1869,3.1847,3.1883,3.1862,3.1873,3.1877,3.1878,3.1881,3.1856,3.1898,3.1967,3.1975,3.1884,3.1883,3.1883,0,3.1736,3.1766,3.1796,3.1803,3.1816,3.1831,3.1837,3.1848,3.186,3.1875,3.1883,3.1901,3.1911,3.1926,3.1925,3.1909,3.1963,3.194,3.1965,3.1965,3.1977,3.1976,3.2049,3.1983,3.1983,3.1983,3.1982,0,3.1787,3.1813,3.1814,3.1832,3.1862,3.1859,3.1889,3.1894,3.1904,3.1924,3.1915,3.1934,3.1932,3.1951,3.1951,3.1982,3.1986,3.1988,3.1988,3.199,3.199,3.1997,3.1994,3.1985,3.1984,3.1984,3.1983,0,3.1836,3.1837,3.1869,3.188,3.1884,3.1905,3.1915,3.1933,3.1936,3.1961,3.1967,3.1971,3.1994,3.1995,3.202,3.202,3.2059,3.2054,3.2055,3.2054,3.208,3.2078,3.2161,3.2172,3.2097,3.2098,3.2099,0,3.1868,3.1889,3.1903,3.1916,3.1923,3.1944,3.1956,3.1954,3.1968,3.1985,3.2001,3.2023,3.2041,3.2078,3.2083,3.2104,3.21,3.2128,3.2103,3.2105,3.2102,3.2102,3.2105,3.2133,3.2134,3.2134,3.2135,0,3.1927,3.1927,3.1946,3.1965,3.1981,3.1996,3.201,3.2021,3.2021,3.2037,3.2061,3.2074,3.2102,3.2124,3.2144,3.2152,3.2144,3.2143,3.215,3.2152,3.2152,3.2154,3.2069,3.2141,3.214,3.214,3.214,3.2139,3.197,3.1988,3.2002,3.2023,3.2034,3.2048,3.2066,3.2071,3.2091,3.2113,3.2111,3.2138,3.2152,3.2178,3.2187,3.2209,3.2199,3.2209,3.2212,3.2215,3.2218,3.2149,3.2212,3.2212,3.2212,3.2212,3.2212,0,3.2029,3.2038,3.2058,3.2078,3.2096,3.2087,3.2103,3.2118,3.2142,3.2156,3.2174,3.2202,3.2224,3.2232,3.2255,3.227,3.2268,3.2276,3.2276,3.2278,3.2225,3.2217,3.2278,3.2278,3.2278,3.2278,3.2278,3.2278,3.2062,3.2094,3.2096,3.2134,3.2142,3.2168,3.2178,3.2192,3.2203,3.2235,3.2254,3.2259,3.2271,3.2294,3.2315,3.2317,3.2326,3.2337,3.2337,3.2288,3.2281,3.2275,3.2267,3.2338,3.2339,3.2389,3.2389,3.239]},{"header":{"parameterUnit":"m.s-1","parameterCategory":1,"la1":30.2991,"la2":30.254,"lo1":-89.0895,"lo2":-89.0444,"dy":0.0017,"dx":0.0017,"nx":28,"ny":28,"refTime":"2024-08-14T09:00:00:Z","depth":0,"parameterNumber":3,"parameterNumberName":"V-component_of_WINDS"},"data":[0,0,0,0,0,0,0,0,0,0,0,0,0,0,0,0,0,0,0,0,0,0,0,0,0,0,0,0,0,0,0,0,0,0,0,0,0,0,0,0,0,0,0,0,0,0,0,0,0,0,0,0,0,0,0,0,0,0,-1.5365,-1.5365,0,-1.5407,-1.5407,-1.5408,-1.5415,-1.5415,-1.5415,-1.5414,-1.5459,-1.546,-1.5462,0,0,0,0,0,0,0,0,0,0,0,0,0,-1.5294,-1.5295,-1.5365,-1.5365,-1.5366,-1.5407,-1.5407,-1.5408,-1.5416,-1.5415,-1.5415,-1.5414,-1.5458,-1.546,-1.5462,0,0,0,0,0,0,0,0,0,0,0,0,0,-1.5329,-1.5296,-1.5365,-1.5375,-1.5376,-1.5407,-1.5407,-1.5408,-1.5416,-1.5415,-1.5415,-1.5414,-1.5458,-1.546,-1.5462,-1.5486,0,0,-1.5469,-1.547,0,0,0,0,0,0,0,0,-1.5327,-1.5332,-1.5373,-1.5374,-1.5375,-1.5405,-1.5399,-1.5434,-1.5416,-1.5401,-1.5414,-1.5414,-1.5441,-1.5445,-1.5454,-1.5488,-1.549,-1.5469,-1.5471,-1.5471,-1.5472,0,0,0,0,0,0,0,-1.5325,-1.533,-1.5381,-1.5373,-1.5375,-1.5378,-1.5382,-1.5405,-1.5423,-1.5402,-1.5402,-1.5407,-1.5442,-1.5452,-1.5455,-1.5491,-1.5469,-1.5471,-1.5472,-1.5473,-1.555,-1.5551,0,0,0,0,0,0,-1.532,-1.5328,-1.538,-1.5383,-1.5349,-1.5379,-1.5384,-1.5396,-1.5423,-1.5427,-1.5408,-1.5408,-1.5448,-1.5453,-1.5457,-1.5489,-1.5471,-1.5474,-1.5475,-1.555,-1.5551,-1.5551,0,0,0,0,0,0,-1.5319,-1.5325,-1.5378,-1.5356,-1.5363,-1.5381,-1.5395,-1.5397,-1.5407,-1.5428,-1.5431,-1.5414,-1.5448,-1.5454,-1.548,-1.549,-1.5475,-1.5477,-1.5549,-1.555,-1.5551,-1.5552,0,0,0,0,0,0,-1.5317,-1.5324,-1.5333,-1.5356,-1.5364,-1.54,-1.5395,-1.5399,-1.5411,-1.5411,-1.5435,-1.5438,-1.5448,-1.5476,-1.5482,-1.5493,-1.5478,-1.5548,-1.5549,-1.5551,-1.5551,-1.5553,-1.5555,0,0,0,0,0,-1.5314,-1.5331,-1.5333,-1.5339,-1.5375,-1.54,-1.5405,-1.5416,-1.5412,-1.5421,-1.5435,-1.5437,-1.5488,-1.5479,-1.5485,-1.5497,-1.5547,-1.5549,-1.5551,-1.555,-1.5553,-1.5555,0,0,0,0,0,0,-1.5309,-1.5334,-1.5337,-1.5361,-1.5379,-1.5401,-1.5413,-1.5417,-1.5436,-1.5436,-1.5449,-1.5454,-1.548,-1.5491,-1.548,-1.5524,-1.5518,-1.5521,-1.5515,-1.5518,-1.5519,-1.5516,-1.548,0,0,0,0,0,-1.531,-1.5328,-1.535,-1.537,-1.5378,-1.5394,-1.5406,-1.5413,-1.5431,-1.5439,-1.5454,-1.5472,-1.5493,-1.5506,-1.5525,-1.5553,-1.5559,-1.5565,-1.5566,-1.5568,-1.557,-1.5588,-1.5591,-1.5556,-1.5556,-1.5556,0,0,-1.5314,-1.533,-1.5341,-1.5369,-1.5383,-1.5402,-1.54,-1.542,-1.5435,-1.5442,-1.5467,-1.548,-1.5501,-1.5528,-1.5541,-1.5539,-1.5582,-1.557,-1.5571,-1.5573,-1.559,-1.5593,-1.5596,-1.5558,-1.5557,-1.5557,0,0,-1.5331,-1.5344,-1.5363,-1.5378,-1.54,-1.5411,-1.5415,-1.5438,-1.5446,-1.5472,-1.5478,-1.5497,-1.5531,-1.5547,-1.5559,-1.5585,-1.5589,-1.5591,-1.56,-1.5617,-1.562,-1.5622,-1.5633,-1.5637,-1.5593,-1.5593,-1.5593,0,-1.5333,-1.5362,-1.5373,-1.5393,-1.5406,-1.5414,-1.5434,-1.5448,-1.5475,-1.5484,-1.5481,-1.5526,-1.554,-1.5573,-1.5579,-1.5588,-1.5596,-1.5588,-1.5618,-1.5621,-1.5624,-1.5634,-1.5638,-1.5593,-1.5593,-1.5593,-1.5593,0,-1.5364,-1.5384,-1.5397,-1.5423,-1.5438,-1.5458,-1.5474,-1.5487,-1.5494,-1.5506,-1.5533,-1.5552,-1.5576,-1.5584,-1.559,-1.5618,-1.5617,-1.5616,-1.561,-1.5627,-1.5637,-1.5641,-1.5594,-1.5594,-1.5594,-1.5594,0,0,-1.5378,-1.5411,-1.5416,-1.5429,-1.5454,-1.5471,-1.5492,-1.5516,-1.5529,-1.5548,-1.5567,-1.5597,-1.5597,-1.5612,-1.562,-1.5635,-1.5656,-1.5632,-1.5633,-1.5638,-1.5691,-1.5692,-1.5696,-1.5659,-1.566,-1.566,-1.5689,0,-1.5398,-1.5436,-1.5448,-1.5481,-1.55,-1.5509,-1.5528,-1.5546,-1.5558,-1.5578,-1.5592,-1.5613,-1.5611,-1.562,-1.5635,-1.565,-1.5667,-1.5648,-1.5679,-1.568,-1.5674,-1.5701,-1.5702,-1.5729,-1.5693,-1.5694,-1.5694,0,-1.5427,-1.5448,-1.5482,-1.5507,-1.5516,-1.5533,-1.5557,-1.5575,-1.5597,-1.5605,-1.5622,-1.563,-1.5654,-1.5647,-1.5682,-1.5669,-1.5682,-1.5692,-1.5693,-1.5697,-1.5689,-1.5707,-1.5737,-1.5742,-1.5701,-1.57,-1.57,0,-1.5436,-1.5472,-1.5497,-1.5508,-1.5538,-1.555,-1.5563,-1.5584,-1.5599,-1.562,-1.563,-1.5654,-1.5668,-1.5687,-1.5702,-1.5695,-1.5736,-1.573,-1.5745,-1.5745,-1.5754,-1.5753,-1.5787,-1.576,-1.576,-1.576,-1.576,0,-1.5458,-1.548,-1.5502,-1.5518,-1.5543,-1.5557,-1.5581,-1.5595,-1.5614,-1.5634,-1.5642,-1.5661,-1.5679,-1.57,-1.5712,-1.574,-1.5746,-1.5754,-1.5757,-1.5754,-1.5753,-1.5764,-1.5763,-1.5761,-1.5761,-1.5761,-1.5761,0,-1.5472,-1.5487,-1.5517,-1.5543,-1.555,-1.5567,-1.559,-1.5607,-1.562,-1.5645,-1.5652,-1.5673,-1.5699,-1.5715,-1.5748,-1.5756,-1.5788,-1.579,-1.5781,-1.5782,-1.5797,-1.5796,-1.584,-1.5848,-1.5815,-1.5815,-1.5815,0,-1.5486,-1.5502,-1.5531,-1.5545,-1.5558,-1.558,-1.5595,-1.5611,-1.5626,-1.5654,-1.5668,-1.5695,-1.5717,-1.5758,-1.5777,-1.5803,-1.5806,-1.582,-1.581,-1.5807,-1.5809,-1.5808,-1.5811,-1.5822,-1.5822,-1.5822,-1.5822,0,-1.5509,-1.5516,-1.5538,-1.5563,-1.5581,-1.5601,-1.5622,-1.5633,-1.5652,-1.567,-1.5697,-1.5714,-1.5749,-1.5776,-1.5804,-1.5818,-1.5824,-1.5826,-1.5831,-1.5828,-1.5823,-1.5828,-1.5786,-1.5824,-1.5824,-1.5824,-1.5824,-1.5824,-1.5524,-1.554,-1.5563,-1.5588,-1.5605,-1.5624,-1.5642,-1.5658,-1.5681,-1.571,-1.5718,-1.5746,-1.5771,-1.5809,-1.5824,-1.5848,-1.5846,-1.5853,-1.5855,-1.5857,-1.5858,-1.5818,-1.5853,-1.5853,-1.5853,-1.5853,-1.5853,0,-1.5549,-1.5565,-1.5587,-1.5616,-1.5636,-1.564,-1.5663,-1.568,-1.5705,-1.5727,-1.5749,-1.5781,-1.5808,-1.583,-1.5858,-1.5873,-1.5877,-1.588,-1.5879,-1.5883,-1.5857,-1.5851,-1.5877,-1.5877,-1.5877,-1.5877,-1.5877,-1.5877,-1.5564,-1.5593,-1.5603,-1.5641,-1.5657,-1.5685,-1.5698,-1.5717,-1.5735,-1.577,-1.5793,-1.5807,-1.583,-1.586,-1.5885,-1.5891,-1.5902,-1.5905,-1.5912,-1.5887,-1.5885,-1.5882,-1.5876,-1.5907,-1.5907,-1.5936,-1.5936,-1.5936]}]]